Regional Weather Roundup
Issued by NWS

Home | Current Version | Previous Version | Text Only | Print | Product List | Glossary Off
Versions: 1 2 3 4 5 6 7 8 9 10 11 12 13 14 15 16 17 18 19 20 21 22 23 24 25 26 27 28 29 30 31 32 33 34 35 36 37 38 39 40 41 42 43 44 45 46 47 48 49 50

000
ASUS43 KFSD 050502
RWRSD

WEATHER ROUNDUP FOR SOUTH DAKOTA
NATIONAL WEATHER SERVICE SIOUX FALLS SD
1200 AM CDT SUN JUL 05 2015

NOTE: "FAIR" INDICATES FEW OR NO CLOUDS BELOW 12,000 FEET WITH NO
SIGNIFICANT WEATHER AND/OR OBSTRUCTIONS TO VISIBILITY.


SDZ001>005-009-010-012>017-050600-
NORTHWEST AND NORTH CENTRAL SOUTH DAKOTA

CITY           SKY/WX    TMP DP  RH WIND       PRES   REMARKS
BUFFALO          N/A     75  52  44 E5        29.74R
FAITH            N/A     75  64  68 SE10      29.77F
MOBRIDGE       CLEAR     76  71  85 SE13      29.72F
$$

SDZ012>016-024>037-041>051-057-063-072>074-050600-
SOUTHWEST AND SOUTH CENTRAL SOUTH DAKOTA

CITY           SKY/WX    TMP DP  RH WIND       PRES   REMARKS
RAPID CTY ARPT CLEAR     69  63  81 W5        29.82S HAZE
PIERRE         MOCLDY    81  67  62 SW7       29.73R
CUSTER         CLEAR     63  55  75 NW3       30.01F
ELLSWORTH AFB  CLEAR     72  63  73 W7        29.82S
PHILIP         CLEAR     75  62  64 W8        29.75S
PINE RIDGE     CLEAR     72  63  73 VRB7      29.86R
WINNER         FAIR      81  64  56 S20       29.79S
$$

SDZ004>011-016>023-039-040-050600-
NORTHEAST SOUTH DAKOTA

CITY           SKY/WX    TMP DP  RH WIND       PRES   REMARKS
ABERDEEN       MOCLDY    74  67  78 SE16      29.77F THUNDER
WATERTOWN      MOCLDY    71  65  81 SE10      29.84F
BROOKINGS      PTCLDY    70  63  78 SE12      29.89F
SISSETON         N/A     72  65  78 S10       29.78F
$$

SDZ017-020-022-023-036>040-048>070-050600-
SOUTHEAST SOUTH DAKOTA

CITY           SKY/WX    TMP DP  RH WIND       PRES   REMARKS
SIOUX FALLS    PTCLDY    72  63  73 S12       29.90S
HURON          CLOUDY    73  66  78 S15G24    29.78F
CHAMBERLAIN    CLOUDY    73  69  87 S10       29.77F
MITCHELL       CLOUDY    73  66  78 S16G24    29.82F
YANKTON        MOCLDY    72  64  78 SE7       29.87S
$$

ABBREVIATIONS USED IN REMARKS
   TC - TEMPERATURE IN CELSIUS
  WCI - WIND CHILL INDEX
   HX - HEAT INDEX
  VSB - VISIBILITY




USA.gov is the U.S. government's official web portal to all federal, state and local government web resources and services.